Content
SEND FEEDBACK

Daily
Averages
Monthly
Summary
Vietnam

BIEN HUA, VIETNAM


Home > Asia > Vietnam
Elevation: 121 feet     Latitude: 11 12N     Longitude: 106 37E

WEATHER
 
SELECT A DAY
Number of Records: 263,539;   Date Range: 7/1/96 - 9/29/14
 
SHARE

PRINT THIS DATA

[ ← Previous Day ]
WEATHER ALMANAC - JANUARY 31, 2013
[ Next Day → ]
[ °C ]   °F
Weather ElementAverageHighLow
Temperature81.5 °F91.4 °F (1:00 pm)71.6 °F (4:30 am)
Dewpoint66.1 °F69.8 °F (3:30 am)62.6 °F (3:00 pm)
Humidity61.2 %88 % (4:30 am)39 % (4:00 pm)
Barometer29.92 in30.01 in (9:30 am)29.86 in (2:00 pm)
Wind Speed6.7 mph10.4 mph (5:00 pm)
Weather ElementAverage
Visibility6.4 mi
Wind DirectionESE (113.2 °)

Weather ElementTotal
Precipitation---
Cooling Degree Days16.5 (Base 65)
Growing Degree Days31.5 (Base 50)
Averaged from 48 records on January 31, 2013
WEATHER CONDITIONS BREAKOUT
WIND DIRECTION BREAKOUT
WEATHER BY HOUR - JANUARY 31, 2013
[ °C ]   °F
Local TimeTemperatureDewpointHumidityBarometerVisibilityWind DirectionWind SpeedGust SpeedPrecipitationEventsConditions
12:30 AM75.2 °F66.2 °F73 %29.92 in6.2 miEast (90°)5.8 mphPartly Cloudy
1:00 AM75.2 °F68.0 °F78 %29.92 in6.2 miEast (100°)5.8 mphPartly Cloudy
1:30 AM75.2 °F68.0 °F78 %29.92 in6.2 miEast (100°)4.6 mphPartly Cloudy
2:30 AM75.2 °F68.0 °F78 %29.92 in6.2 miSE (130°)5.8 mphScattered Clouds
3:00 AM75.2 °F68.0 °F78 %29.92 in6.2 miESE (110°)4.6 mphScattered Clouds
3:30 AM75.2 °F69.8 °F83 %29.92 in6.2 miEast (90°)3.5 mphScattered Clouds
4:00 AM73.4 °F68.0 °F83 %29.92 in6.2 miENE (70°)3.5 mphScattered Clouds
4:30 AM71.6 °F68.0 °F88 %29.92 in6.2 miEast (90°)4.6 mphScattered Clouds
5:00 AM73.4 °F69.8 °F88 %29.92 in6.2 miEast (90°)5.8 mphScattered Clouds
5:30 AM73.4 °F69.8 °F88 %29.92 in6.2 miESE (110°)5.8 mphScattered Clouds
6:00 AM73.4 °F69.8 °F88 %29.95 in6.2 miESE (110°)6.9 mphScattered Clouds
6:30 AM73.4 °F69.8 °F88 %29.95 in6.2 miESE (110°)6.9 mphPartly Cloudy
7:00 AM73.4 °F69.8 °F88 %29.95 in6.2 miESE (110°)6.9 mphPartly Cloudy
7:30 AM75.2 °F69.8 °F83 %29.95 in6.2 miESE (110°)6.9 mphPartly Cloudy
8:00 AM78.8 °F69.8 °F74 %29.95 in6.2 miEast (90°)8.1 mphPartly Cloudy
8:30 AM78.8 °F68.0 °F69 %29.98 in6.2 miEast (100°)6.9 mphPartly Cloudy
9:00 AM80.6 °F66.2 °F61 %29.98 in6.2 miEast (90°)5.8 mphPartly Cloudy
9:30 AM82.4 °F66.2 °F58 %30.01 in6.2 miEast (90°)5.8 mphPartly Cloudy
10:00 AM84.2 °F66.2 °F55 %29.98 in6.2 miEast (80°)9.2 mphPartly Cloudy
10:30 AM84.2 °F66.2 °F55 %29.98 in6.2 miENE (70°)8.1 mphPartly Cloudy
11:00 AM87.8 °F66.2 °F49 %29.98 in6.2 miENE (70°)6.9 mphPartly Cloudy
11:30 AM89.6 °F64.4 °F43 %29.95 in6.2 miEast (80°)6.9 mphPartly Cloudy
12:00 PM87.8 °F64.4 °F46 %29.95 in6.2 miNE (40°)4.6 mphPartly Cloudy
12:30 PM89.6 °F64.4 °F43 %29.92 in6.2 miSSE (150°)6.9 mphScattered Clouds
1:00 PM91.4 °F64.4 °F41 %29.92 in6.2 miESE (110°)5.8 mphScattered Clouds
1:30 PM89.6 °F64.4 °F43 %29.89 in6.2 miNE (40°)5.8 mphScattered Clouds
2:00 PM91.4 °F64.4 °F41 %29.86 in6.2 miVariable3.5 mphScattered Clouds
2:30 PM91.4 °F64.4 °F41 %29.86 in6.2 miNorth (360°)4.6 mphScattered Clouds
3:00 PM89.6 °F62.6 °F40 %29.86 in6.2 miVariable2.3 mphScattered Clouds
3:30 PM89.6 °F66.2 °F46 %29.86 in6.2 miSouth (170°)9.2 mphScattered Clouds
4:00 PM89.6 °F64.4 °F43 %29.86 in6.2 miSSE (150°)6.9 mphPartly Cloudy
4:00 PM89.0 °F67.0 °F39 %29.89 in12.0 mi°8.9 mphScattered Clouds
4:30 PM89.6 °F64.4 °F43 %29.86 in6.2 miSSE (150°)9.2 mphPartly Cloudy
5:00 PM87.8 °F64.4 °F46 %29.86 in6.2 miSSE (160°)10.4 mphPartly Cloudy
5:30 PM86.0 °F64.4 °F48 %29.89 in6.2 miSSE (150°)8.1 mphPartly Cloudy
6:00 PM84.2 °F64.4 °F51 %29.89 in6.2 miSouth (170°)9.2 mphPartly Cloudy
6:30 PM82.4 °F64.4 °F54 %29.89 in6.2 miSouth (170°)8.1 mphPartly Cloudy
7:00 PM81.0 °F68.0 °F56 %29.93 in12.0 miSouth (180°)6.7 mphClear
7:00 PM82.4 °F64.4 °F54 %29.92 in6.2 miSE (140°)6.9 mphPartly Cloudy
7:30 PM82.4 °F62.6 °F51 %29.92 in6.2 miSE (130°)6.9 mphPartly Cloudy
8:00 PM80.6 °F62.6 °F54 %29.92 in6.2 miESE (120°)6.9 mphPartly Cloudy
8:30 PM80.6 °F62.6 °F54 %29.92 in6.2 miSE (130°)5.8 mphPartly Cloudy
9:00 PM80.6 °F62.6 °F54 %29.95 in6.2 miESE (120°)8.1 mphPartly Cloudy
9:30 PM78.8 °F64.4 °F61 %29.95 in6.2 miESE (120°)9.2 mphPartly Cloudy
10:00 PM78.8 °F64.4 °F61 %29.95 in6.2 miESE (120°)8.1 mphPartly Cloudy
10:30 PM78.8 °F66.2 °F65 %29.95 in6.2 miESE (120°)9.2 mphPartly Cloudy
11:00 PM77.0 °F66.2 °F69 %29.95 in6.2 miESE (120°)9.2 mphPartly Cloudy
11:30 PM77.0 °F66.2 °F69 %29.95 in6.2 miESE (110°)5.8 mphPartly Cloudy
Hourly data recorded from VVTS, located miles away from Bien Hua, Vietnam







STORIES FROM OUR PARTNERS